Time,TemperatureF,DewpointF,PressureIn,WindDirection,WindDirectionDegrees,WindSpeedMPH,WindSpeedGustMPH,Humidity,HourlyPrecipIn,Conditions,Clouds,dailyrainin,SoftwareType,DateUTC
2013-07-14 00:11:00,66.0,60.0,-100.00,ESE,110,4.0,6.0,80,-99.99,,,-99.99,,2013-07-14 05:11:00,
2013-07-14 00:23:00,66.0,60.0,-100.00,ESE,110,4.0,6.0,80,-99.99,,,-99.99,,2013-07-14 05:23:00,
2013-07-14 00:32:00,67.0,61.0,-100.00,ESE,120,6.0,8.0,81,-99.99,,,-99.99,,2013-07-14 05:32:00,
2013-07-14 00:43:00,67.0,61.0,-100.00,ESE,120,6.0,10.0,80,-99.99,,,-99.99,,2013-07-14 05:43:00,
2013-07-14 00:53:00,67.0,61.0,-100.00,ESE,120,6.0,10.0,80,-99.99,,,-99.99,,2013-07-14 05:53:00,
2013-07-14 01:22:00,66.0,61.0,-100.00,East,95,4.0,6.0,83,-99.99,,,-99.99,,2013-07-14 06:22:00,
2013-07-14 01:42:00,66.0,61.0,-100.00,East,85,4.0,6.0,83,-99.99,,,-99.99,,2013-07-14 06:42:00,
2013-07-14 01:53:00,66.0,61.0,-100.00,East,85,4.0,6.0,83,-99.99,,,-99.99,,2013-07-14 06:53:00,
2013-07-14 02:12:00,67.0,61.0,-100.00,ENE,70,4.0,5.0,82,-99.99,,,-99.99,,2013-07-14 07:12:00,
2013-07-14 02:22:00,67.0,61.0,-100.00,ENE,70,4.0,5.0,82,-99.99,,,-99.99,,2013-07-14 07:22:00,
2013-07-14 02:53:00,66.0,60.0,-100.00,ESE,115,4.0,5.0,82,-99.99,,,-99.99,,2013-07-14 07:53:00,
2013-07-14 03:22:00,65.0,60.0,-100.00,East,90,4.0,5.0,83,-99.99,,,-99.99,,2013-07-14 08:22:00,
2013-07-14 03:42:00,64.0,60.0,-100.00,ESE,105,2.0,4.0,85,-99.99,,,-99.99,,2013-07-14 08:42:00,
2013-07-14 03:53:00,64.0,60.0,-100.00,ESE,105,2.0,4.0,85,-99.99,,,-99.99,,2013-07-14 08:53:00,
2013-07-14 04:11:00,65.0,60.0,-100.00,East,80,3.0,7.0,84,-99.99,,,-99.99,,2013-07-14 09:11:00,
2013-07-14 04:22:00,65.0,60.0,-100.00,East,80,3.0,7.0,84,-99.99,,,-99.99,,2013-07-14 09:22:00,
2013-07-14 04:53:00,64.0,59.0,-100.00,East,85,4.0,6.0,85,-99.99,,,-99.99,,2013-07-14 09:53:00,
2013-07-14 05:11:00,64.0,59.0,-100.00,ENE,70,4.0,4.0,85,-99.99,,,-99.99,,2013-07-14 10:11:00,
2013-07-14 05:22:00,64.0,59.0,-100.00,ENE,70,4.0,4.0,85,-99.99,,,-99.99,,2013-07-14 10:22:00,
2013-07-14 05:42:00,64.0,59.0,-100.00,ESE,110,1.0,2.0,86,-99.99,,,-99.99,,2013-07-14 10:42:00,
2013-07-14 05:53:00,64.0,59.0,-100.00,ESE,110,1.0,2.0,86,-99.99,,,-99.99,,2013-07-14 10:53:00,
2013-07-14 06:11:00,63.0,60.0,-100.00,ESE,115,2.0,5.0,88,-99.99,,,-99.99,,2013-07-14 11:11:00,
2013-07-14 06:22:00,63.0,60.0,-100.00,ESE,115,2.0,5.0,88,-99.99,,,-99.99,,2013-07-14 11:22:00,
2013-07-14 06:43:00,64.0,60.0,-100.00,ESE,110,1.0,4.0,87,-99.99,,,-99.99,,2013-07-14 11:43:00,
2013-07-14 06:53:00,64.0,60.0,-100.00,ESE,110,1.0,4.0,87,-99.99,,,-99.99,,2013-07-14 11:53:00,
2013-07-14 07:11:00,67.0,62.0,-100.00,East,85,4.0,6.0,84,-99.99,,,-99.99,,2013-07-14 12:11:00,
2013-07-14 07:22:00,67.0,62.0,-100.00,East,85,4.0,6.0,84,-99.99,,,-99.99,,2013-07-14 12:22:00,
2013-07-14 07:53:00,69.0,64.0,-100.00,ESE,110,5.0,8.0,84,-99.99,,,-99.99,,2013-07-14 12:53:00,
2013-07-14 08:22:00,71.0,64.0,-100.00,ESE,105,5.0,9.0,81,-99.99,,,-99.99,,2013-07-14 13:22:00,
2013-07-14 08:42:00,73.0,65.0,-100.00,ESE,115,5.0,9.0,78,-99.99,,,-99.99,,2013-07-14 13:42:00,
2013-07-14 08:53:00,73.0,65.0,-100.00,ESE,115,5.0,9.0,78,-99.99,,,-99.99,,2013-07-14 13:53:00,
2013-07-14 09:11:00,75.0,67.0,-100.00,SE,130,7.0,11.0,74,-99.99,,,-99.99,,2013-07-14 14:11:00,
2013-07-14 09:23:00,75.0,67.0,-100.00,SE,130,7.0,11.0,74,-99.99,,,-99.99,,2013-07-14 14:23:00,
2013-07-14 09:43:00,78.0,68.0,-100.00,East,100,8.0,11.0,71,-99.99,,,-99.99,,2013-07-14 14:43:00,
2013-07-14 09:53:00,78.0,68.0,-100.00,East,100,8.0,11.0,71,-99.99,,,-99.99,,2013-07-14 14:53:00,
2013-07-14 10:12:00,79.0,66.0,-100.00,SE,145,8.0,13.0,65,-99.99,,,-99.99,,2013-07-14 15:12:00,
2013-07-14 10:22:00,79.0,66.0,-100.00,SE,145,8.0,13.0,65,-99.99,,,-99.99,,2013-07-14 15:22:00,
2013-07-14 10:42:00,80.0,66.0,-100.00,ESE,115,10.0,13.0,62,-99.99,,,-99.99,,2013-07-14 15:42:00,
2013-07-14 10:53:00,80.0,66.0,-100.00,ESE,115,10.0,13.0,62,-99.99,,,-99.99,,2013-07-14 15:53:00,
2013-07-14 11:11:00,81.0,67.0,-100.00,SE,145,6.0,9.0,62,-99.99,,,-99.99,,2013-07-14 16:11:00,
2013-07-14 11:22:00,81.0,67.0,-100.00,SE,145,6.0,9.0,62,-99.99,,,-99.99,,2013-07-14 16:22:00,
2013-07-14 11:43:00,82.0,66.0,-100.00,SE,140,7.0,16.0,59,-99.99,,,-99.99,,2013-07-14 16:43:00,
2013-07-14 11:53:00,82.0,66.0,-100.00,SE,140,7.0,16.0,59,-99.99,,,-99.99,,2013-07-14 16:53:00,
2013-07-14 12:11:00,81.0,66.0,-100.00,SSW,210,4.0,10.0,60,-99.99,,,-99.99,,2013-07-14 17:11:00,
2013-07-14 12:22:00,81.0,66.0,-100.00,SSW,210,4.0,10.0,60,-99.99,,,-99.99,,2013-07-14 17:22:00,
2013-07-14 12:43:00,81.0,65.0,-100.00,South,185,4.0,9.0,58,-99.99,,,-99.99,,2013-07-14 17:43:00,
2013-07-14 12:53:00,81.0,65.0,-100.00,South,185,4.0,9.0,58,-99.99,,,-99.99,,2013-07-14 17:53:00,
2013-07-14 13:11:00,84.0,66.0,-100.00,SE,130,9.0,13.0,55,-99.99,,,-99.99,,2013-07-14 18:11:00,
2013-07-14 13:22:00,84.0,66.0,-100.00,SE,130,9.0,13.0,55,-99.99,,,-99.99,,2013-07-14 18:22:00,
2013-07-14 13:52:00,84.0,67.0,-100.00,ESE,110,7.0,13.0,56,-99.99,,,-99.99,,2013-07-14 18:52:00,
2013-07-14 14:22:00,84.0,66.0,-100.00,ESE,115,9.0,14.0,55,-99.99,,,-99.99,,2013-07-14 19:22:00,
2013-07-14 14:43:00,86.0,67.0,-100.00,SE,140,6.0,14.0,53,-99.99,,,-99.99,,2013-07-14 19:43:00,
2013-07-14 14:53:00,86.0,67.0,-100.00,SE,140,6.0,14.0,53,-99.99,,,-99.99,,2013-07-14 19:53:00,
2013-07-14 15:11:00,85.0,66.0,-100.00,ESE,105,11.0,14.0,52,-99.99,,,-99.99,,2013-07-14 20:11:00,
2013-07-14 15:22:00,85.0,66.0,-100.00,ESE,105,11.0,14.0,52,-99.99,,,-99.99,,2013-07-14 20:22:00,
2013-07-14 15:43:00,85.0,67.0,-100.00,SE,135,10.0,14.0,54,-99.99,,,-99.99,,2013-07-14 20:43:00,
2013-07-14 15:53:00,85.0,67.0,-100.00,SE,135,10.0,14.0,54,-99.99,,,-99.99,,2013-07-14 20:53:00,
2013-07-14 16:11:00,85.0,67.0,-100.00,SE,135,6.0,11.0,55,-99.99,,,-99.99,,2013-07-14 21:11:00,
2013-07-14 16:22:00,85.0,67.0,-100.00,SE,135,6.0,11.0,55,-99.99,,,-99.99,,2013-07-14 21:22:00,
2013-07-14 16:53:00,83.0,67.0,-100.00,ESE,120,8.0,13.0,57,-99.99,,,-99.99,,2013-07-14 21:53:00,
2013-07-14 17:22:00,87.0,69.0,-100.00,ESE,105,8.0,11.0,55,-99.99,,,-99.99,,2013-07-14 22:22:00,
2013-07-14 17:53:00,85.0,68.0,-100.00,East,95,9.0,14.0,56,-99.99,,,-99.99,,2013-07-14 22:53:00,
2013-07-14 18:11:00,85.0,67.0,-100.00,SE,130,7.0,13.0,54,-99.99,,,-99.99,,2013-07-14 23:11:00,
2013-07-14 18:22:00,85.0,67.0,-100.00,SE,130,7.0,13.0,54,-99.99,,,-99.99,,2013-07-14 23:22:00,
2013-07-14 18:42:00,85.0,67.0,-100.00,SE,135,8.0,15.0,56,-99.99,,,-99.99,,2013-07-14 23:42:00,
2013-07-14 18:53:00,85.0,67.0,-100.00,SE,135,8.0,15.0,56,-99.99,,,-99.99,,2013-07-14 23:53:00,
2013-07-14 19:22:00,84.0,67.0,-100.00,East,100,7.0,12.0,57,-99.99,,,-99.99,,2013-07-15 00:22:00,
2013-07-14 19:32:00,84.0,67.0,-100.00,East,100,7.0,12.0,57,-99.99,,,-99.99,,2013-07-15 00:32:00,
2013-07-14 19:53:00,83.0,68.0,-100.00,East,95,4.0,6.0,62,-99.99,,,-99.99,,2013-07-15 00:53:00,
2013-07-14 20:11:00,81.0,69.0,-100.00,East,90,2.0,4.0,67,-99.99,,,-99.99,,2013-07-15 01:11:00,
2013-07-14 20:22:00,81.0,69.0,-100.00,East,90,2.0,4.0,67,-99.99,,,-99.99,,2013-07-15 01:22:00,
2013-07-14 20:32:00,80.0,69.0,-100.00,East,100,4.0,4.0,69,-99.99,,,-99.99,,2013-07-15 01:32:00,
2013-07-14 20:43:00,80.0,69.0,-100.00,ENE,75,2.0,3.0,70,-99.99,,,-99.99,,2013-07-15 01:43:00,
2013-07-14 20:53:00,80.0,69.0,-100.00,ENE,75,2.0,3.0,70,-99.99,,,-99.99,,2013-07-15 01:53:00,
2013-07-14 21:11:00,79.0,69.0,-100.00,ENE,65,1.0,3.0,71,-99.99,,,-99.99,,2013-07-15 02:11:00,
2013-07-14 21:22:00,79.0,69.0,-100.00,ENE,65,1.0,3.0,71,-99.99,,,-99.99,,2013-07-15 02:22:00,
2013-07-14 21:42:00,78.0,68.0,-100.00,ENE,60,0.0,1.0,73,-99.99,,,-99.99,,2013-07-15 02:42:00,
2013-07-14 21:53:00,78.0,68.0,-100.00,ENE,60,0.0,1.0,73,-99.99,,,-99.99,,2013-07-15 02:53:00,
2013-07-14 22:11:00,76.0,69.0,-100.00,East,95,4.0,6.0,78,-99.99,,,-99.99,,2013-07-15 03:11:00,
2013-07-14 22:22:00,76.0,69.0,-100.00,East,95,4.0,6.0,78,-99.99,,,-99.99,,2013-07-15 03:22:00,
2013-07-14 22:53:00,76.0,68.0,-100.00,East,80,4.0,6.0,78,-99.99,,,-99.99,,2013-07-15 03:53:00,
2013-07-14 23:11:00,75.0,67.0,-100.00,East,90,4.0,5.0,77,-99.99,,,-99.99,,2013-07-15 04:11:00,
2013-07-14 23:22:00,75.0,67.0,-100.00,East,90,4.0,5.0,77,-99.99,,,-99.99,,2013-07-15 04:22:00,
2013-07-14 23:32:00,74.0,68.0,-100.00,East,85,2.0,4.0,81,-99.99,,,-99.99,,2013-07-15 04:32:00,
2013-07-14 23:42:00,74.0,67.0,-100.00,East,85,2.0,4.0,80,-99.99,,,-99.99,,2013-07-15 04:42:00,
2013-07-14 23:54:00,74.0,67.0,-100.00,East,85,2.0,4.0,80,-99.99,,,-99.99,,2013-07-15 04:54:00,